CW4611 Weather Reports


time (UTC)temp
F
wind
direction
speed
knots
gust
knots
rain 1hr
in
rain 24hr
in
rain mn
in
humidity
%
barometer
mb
20260507151604 46 9 0.9 2.6 0.00 0.00 0.00 56 1025.0
20260507151105 45 9 1.7 2.6 0.00 0.00 0.00 60 1025.0
20260507144605 43 12 0.0 1.7 0.00 0.00 0.00 62 1024.8
20260507144105 42 12 0.9 1.7 0.00 0.00 0.00 66 1024.8
20260507143605 42 13 0.9 1.7 0.00 0.00 0.00 66 1024.9
20260507143105 41 12 0.0 2.6 0.00 0.00 0.00 66 1024.9
20260507141604 41 13 1.7 4.3 0.00 0.00 0.00 66 1025.1
20260507140604 40 13 0.0 0.9 0.00 0.00 0.00 66 1025.1
20260507140105 40 13 0.9 2.6 0.00 0.00 0.00 65 1025.2
20260507134605 39 13 0.0 0.0 0.00 0.00 0.00 68 1025.3
20260507134105 38 13 0.9 1.7 0.00 0.00 0.00 68 1025.4
20260507133605 38 9 0.0 1.7 0.00 0.00 0.00 71 1025.4
20260507133105 38 9 0.9 2.6 0.00 0.00 0.00 68 1025.4
20260507131604 38 11 0.9 2.6 0.00 0.00 0.00 66 1025.5
20260507130605 38 9 1.7 5.2 0.00 0.00 0.00 66 1025.5
20260507130104 38 10 1.7 5.2 0.00 0.00 0.00 65 1025.4
20260507124105 36 9 0.9 2.6 0.00 0.00 0.00 70 1025.3
20260507123605 35 7 0.9 2.6 0.00 0.00 0.00 71 1025.4
20260507123105 35 9 0.0 2.6 0.00 0.00 0.00 71 1025.5
20260507121104 36 13 0.0 0.0 0.00 0.00 0.00 66 1025.6
20260507120105 37 10 2.6 12.2 0.00 0.00 0.00 63 1025.8
20260507114605 38 9 7.0 11.3 0.00 0.00 0.00 61 1025.6
20260507114105 38 10 5.2 10.4 0.00 0.00 0.00 60 1025.7
20260507113105 37 9 8.7 13.9 0.00 0.00 0.00 61 1025.7
20260507111604 37 9 8.7 13.9 0.00 0.00 0.00 63 1025.7
20260507111104 36 10 7.0 11.3 0.00 0.00 0.00 64 1025.8
20260507110604 36 10 9.6 14.8 0.00 0.00 0.00 63 1025.8
20260507104605 37 10 8.7 13.0 0.00 0.00 0.00 62 1026.1
20260507104104 37 11 10.4 13.0 0.00 0.00 0.00 61 1026.2
20260507103605 37 10 8.7 12.2 0.00 0.00 0.00 63 1026.2
20260507101605 36 9 3.5 6.1 0.00 0.00 0.00 63 1026.3
20260507101105 35 9 2.6 5.2 0.00 0.00 0.00 65 1026.5
20260507100605 34 9 2.6 7.0 0.00 0.00 0.00 67 1026.5
20260507100105 34 9 2.6 10.4 0.00 0.00 0.00 69 1026.5
20260507094604 36 10 7.8 12.2 0.00 0.00 0.00 64 1026.6
20260507094104 36 10 5.2 11.3 0.00 0.00 0.00 64 1026.7
20260507093604 36 11 6.1 11.3 0.00 0.00 0.00 66 1026.7
20260507093104 35 10 9.6 13.0 0.00 0.00 0.00 67 1026.8
20260507091604 34 9 0.9 2.6 0.00 0.00 0.00 68 1026.8
20260507091104 35 9 1.7 4.3 0.00 0.00 0.00 68 1026.8
20260507090604 36 9 0.9 2.6 0.00 0.00 0.00 63 1026.9
20260507090105 37 10 2.6 8.7 0.00 0.00 0.00 62 1026.8
20260507084604 35 9 3.5 6.1 0.00 0.00 0.00 66 1026.9
20260507084105 34 9 2.6 2.6 0.00 0.00 0.00 70 1027.0
20260507083605 34 9 1.7 4.3 0.00 0.00 0.00 71 1027.1
20260507083105 33 9 1.7 2.6 0.00 0.00 0.00 71 1027.0
20260507081604 34 7 2.6 4.3 0.00 0.00 0.00 71 1027.0
20260507080604 34 9 0.0 0.9 0.00 0.00 0.00 69 1027.1
20260507080105 34 9 2.6 2.6 0.00 0.00 0.00 68 1027.2
20260507074605 34 12 0.9 1.7 0.00 0.00 0.00 70 1027.3
20260507074104 35 12 0.9 2.6 0.00 0.00 0.00 68 1027.3
20260507073604 35 12 0.0 1.7 0.00 0.01 0.00 68 1027.2
20260507073104 35 12 0.0 1.7 0.00 0.01 0.00 68 1027.3
20260507071104 35 10 0.0 2.6 0.00 0.02 0.00 66 1027.3
20260507070604 35 9 0.9 2.6 0.00 0.02 0.00 67 1027.3
20260507070104 36 9 1.7 10.4 0.00 0.02 0.00 65 1027.3
20260507064604 37 9 2.6 4.3 0.00 0.02 0.00 60 1027.3
20260507063605 36 9 4.3 7.0 0.00 0.02 0.00 62 1027.3
20260507061605 36 10 7.8 12.2 0.00 0.02 0.00 64 1027.2
20260507061106 36 11 7.8 13.9 0.00 0.02 0.00 64 1027.2
20260507060604 36 10 10.4 13.9 0.00 0.02 0.00 63 1027.2
20260507060104 37 10 6.1 12.2 0.00 0.02 0.00 61 1027.2
20260507054605 37 10 8.7 12.2 0.00 0.03 0.02 61 1027.2
20260507053605 37 10 7.8 13.0 0.00 0.06 0.02 61 1027.3
20260507053104 37 9 3.5 13.0 0.00 0.06 0.02 62 1027.2
20260507051604 37 10 5.2 10.4 0.00 0.06 0.02 59 1027.4
20260507051104 38 10 6.1 11.3 0.00 0.06 0.02 59 1027.4
20260507050605 38 10 9.6 12.2 0.00 0.06 0.02 59 1027.4
20260507050104 38 9 3.5 7.8 0.00 0.06 0.02 60 1027.3
20260507044104 38 9 5.2 7.8 0.00 0.06 0.02 57 1027.4
20260507043604 38 9 4.3 8.7 0.00 0.06 0.02 58 1027.4
20260507041604 38 9 3.5 6.1 0.00 0.06 0.02 58 1027.5
20260507041104 38 9 3.5 5.2 0.00 0.06 0.02 59 1027.5
20260507040605 38 9 2.6 5.2 0.00 0.06 0.02 58 1027.5
20260507040104 39 9 2.6 6.1 0.00 0.06 0.02 58 1027.5
20260507034604 38 10 2.6 4.3 0.00 0.06 0.02 59 1027.4
20260507034104 39 10 0.0 2.6 0.00 0.06 0.02 60 1027.2
20260507033604 39 9 2.6 2.6 0.00 0.06 0.02 60 1027.2
20260507033104 39 9 1.7 4.3 0.00 0.06 0.02 60 1027.1
20260507031604 39 9 2.6 2.6 0.00 0.06 0.02 58 1026.7
20260507031104 40 9 1.7 2.6 0.00 0.07 0.02 56 1026.7
20260507030104 42 8 2.6 4.3 0.00 0.08 0.02 53 1026.5
20260507024604 43 15 1.7 2.6 0.00 0.11 0.02 48 1026.4
20260507023604 44 15 1.7 2.6 0.00 0.17 0.02 47 1026.4
20260507021604 46 15 0.9 2.6 0.00 0.20 0.02 42 1026.2
20260507021104 46 15 0.9 1.7 0.00 0.20 0.02 42 1026.3
20260507020104 46 15 1.7 7.8 0.00 0.20 0.02 40 1026.4
20260507014604 47 13 0.9 6.1 0.00 0.20 0.02 39 1026.4
20260507013604 47 14 1.7 10.4 0.00 0.20 0.02 38 1026.3
20260507013104 48 14 2.6 7.8 0.00 0.20 0.02 38 1026.3
20260507011604 48 15 0.9 4.3 0.00 0.20 0.02 39 1026.2
20260507011104 48 13 1.7 4.3 0.00 0.20 0.02 38 1026.2
20260507010604 49 9 1.7 5.2 0.00 0.20 0.02 37 1026.3
20260507010104 49 13 3.5 8.7 0.00 0.20 0.02 37 1026.2
20260507004604 49 14 5.2 8.7 0.00 0.20 0.02 37 1026.2
20260507004104 49 14 2.6 7.8 0.00 0.20 0.02 39 1026.1
20260507003604 49 14 1.7 5.2 0.00 0.20 0.02 37 1026.1
20260507001604 49 8 1.7 5.2 0.00 0.20 0.02 38 1025.9
20260507001103 49 13 3.5 6.1 0.00 0.20 0.02 38 1026.0
20260507000104 49 14 4.3 8.7 0.00 0.20 0.02 39 1026.0
20260506234604 49 10 1.7 8.7 0.00 0.20 0.02 40 1025.9
20260506234104 49 12 2.6 7.8 0.00 0.20 0.02 40 1025.8
20260506233604 49 14 2.6 6.1 0.00 0.20 0.02 40 1025.9
20260506231604 49 14 2.6 7.8 0.00 0.20 0.02 39 1026.0
20260506231104 49 14 3.5 10.4 0.00 0.20 0.02 40 1025.9
20260506230604 49 14 3.5 6.1 0.00 0.20 0.02 41 1025.9
20260506230104 49 13 1.7 10.4 0.00 0.20 0.02 40 1025.8
20260506224604 49 14 1.7 2.6 0.00 0.20 0.02 42 1026.0
20260506223604 49 10 2.6 4.3 0.00 0.20 0.02 40 1026.2
20260506223104 49 13 5.2 11.3 0.00 0.20 0.02 39 1026.2
20260506221605 48 10 4.3 8.7 0.00 0.20 0.02 41 1026.3
20260506221105 48 13 1.7 6.1 0.00 0.20 0.02 39 1026.3
20260506220605 48 9 1.7 6.1 0.00 0.20 0.02 39 1026.3
20260506220105 48 10 1.7 10.4 0.00 0.20 0.02 38 1026.4
20260506214606 47 9 4.3 7.8 0.00 0.20 0.02 41 1026.6
20260506214105 47 10 2.6 10.4 0.00 0.20 0.02 41 1026.9
20260506213605 46 10 5.2 8.7 0.00 0.20 0.02 42 1027.0
20260506213105 46 9 4.3 10.4 0.00 0.20 0.02 39 1027.0
20260506211605 46 9 1.7 7.8 0.00 0.21 0.02 37 1027.0
20260506211104 46 10 3.5 10.4 0.00 0.22 0.02 35 1026.9
20260506210605 46 10 4.3 10.4 0.00 0.23 0.02 36 1027.1
20260506210105 46 13 2.6 7.8 0.00 0.24 0.02 35 1027.1
20260506204605 46 10 3.5 6.1 0.00 0.28 0.02 33 1027.1
20260506204105 46 14 4.3 10.4 0.00 0.30 0.02 32 1027.0
20260506203606 45 10 2.6 8.7 0.00 0.30 0.02 35 1027.0
20260506201605 44 10 3.5 6.1 0.00 0.32 0.02 37 1026.9
20260506201105 43 12 5.2 10.4 0.00 0.32 0.02 41 1026.9
20260506200605 43 9 5.2 8.7 0.00 0.32 0.02 36 1026.9
20260506200105 43 9 2.6 7.8 0.00 0.32 0.02 39 1026.8
20260506194605 43 9 4.3 8.7 0.00 0.32 0.02 40 1026.7
20260506194105 44 9 0.9 2.6 0.00 0.32 0.02 46 1026.6
20260506193605 44 9 0.9 8.7 0.00 0.32 0.02 44 1026.7
20260506193105 43 12 3.5 10.4 0.00 0.32 0.02 52 1026.6
20260506191605 43 12 4.3 8.7 0.00 0.32 0.02 50 1026.6
20260506191105 43 10 2.6 6.1 0.00 0.32 0.02 49 1026.6
20260506184604 43 15 4.3 8.7 0.00 0.34 0.02 41 1026.5
20260506184104 43 14 4.3 11.3 0.00 0.34 0.02 45 1026.4
20260506183605 43 10 2.6 7.8 0.00 0.35 0.02 50 1026.3
20260506181605 42 14 5.2 10.4 0.00 0.38 0.02 45 1026.2
20260506180605 41 9 4.3 8.7 0.00 0.39 0.02 51 1026.1
20260506174605 41 13 6.1 12.2 0.00 0.40 0.02 53 1025.6
20260506174105 41 13 6.1 11.3 0.00 0.41 0.02 60 1025.5
20260506173105 39 13 4.3 10.4 0.00 0.41 0.02 63 1025.5
20260506171605 38 14 4.3 8.7 0.00 0.41 0.02 67 1025.4
20260506171105 39 13 4.3 11.3 0.00 0.41 0.02 71 1025.4
20260506170605 39 12 4.3 12.2 0.00 0.41 0.02 77 1025.2
20260506170105 38 12 5.2 11.3 0.00 0.41 0.02 74 1025.1
20260506164605 38 12 5.2 10.4 0.00 0.43 0.02 75 1024.8
20260506164105 37 12 4.3 10.4 0.00 0.44 0.02 74 1024.9
20260506163605 37 13 4.3 10.4 0.00 0.45 0.02 77 1024.8
20260506163105 36 13 4.3 10.4 0.00 0.45 0.02 77 1024.7
20260506161605 37 13 4.3 8.7 0.00 0.49 0.02 76 1024.6
20260506160604 37 13 2.6 10.4 0.00 0.51 0.02 77 1024.4
20260506160105 37 12 3.5 10.4 0.00 0.51 0.02 77 1024.4
20260506154604 36 13 3.5 10.4 0.00 0.51 0.02 80 1024.1
20260506154105 36 12 4.3 7.8 0.00 0.51 0.02 82 1024.1
20260506153605 36 12 4.3 7.0 0.00 0.51 0.02 79 1024.2
20260506153105 35 12 4.3 7.8 0.00 0.51 0.02 82 1024.2